This is the latest recevied weather packets stored in our database for station/object KF7SOJ. If no packets are shown the sender has not sent any weather packets the latest 10 day(s).
| Time | Temp. | Humidity | Pressure | Rain* | Wind** | Luminosity | Snow |
|---|---|---|---|---|---|---|---|
| 1777511778 | 12.78° C | 30% | 936.8 hPa | 0 mm | - | 77 W/m² | - |
| 1777511475 | 12.78° C | 29% | 936.8 hPa | 0 mm | - | 62 W/m² | - |
| 1777511172 | 13.33° C | 29% | 936.7 hPa | 0 mm | - | 63 W/m² | - |
| 1777510867 | 13.33° C | 28% | 936.8 hPa | 0 mm | - | 88 W/m² | - |
| 1777510564 | 13.33° C | 28% | 936.6 hPa | 0 mm | - | 128 W/m² | - |
| 1777510261 | 13.33° C | 29% | 936.7 hPa | 0 mm | - | 139 W/m² | - |
| 1777509957 | 13.89° C | 27% | 936.6 hPa | 0 mm | - | 156 W/m² | - |
| 1777509653 | 13.89° C | 28% | 936.8 hPa | 0 mm | - | 172 W/m² | - |
| 1777509350 | 13.89° C | 29% | 936.7 hPa | 0 mm | - | 188 W/m² | - |
| 1777509047 | 13.89° C | 26% | 936.6 hPa | 0 mm | - | 205 W/m² | - |
| 1777508744 | 14.44° C | 28% | 936.6 hPa | 0 mm | - | 223 W/m² | - |
| 1777508442 | 13.89° C | 27% | 936.4 hPa | 0 mm | - | 241 W/m² | - |
| 1777508138 | 14.44° C | 26% | 936.7 hPa | 0 mm | - | 252 W/m² | - |
| 1777507835 | 14.44° C | 26% | 936.6 hPa | 0 mm | - | 282 W/m² | - |
| 1777507532 | 15° C | 25% | 936.5 hPa | 0 mm | - | 309 W/m² | - |
| 1777507229 | 14.44° C | 27% | 936.6 hPa | 0 mm | - | 317 W/m² | - |
| 1777506927 | 15° C | 26% | 936.5 hPa | 0 mm | - | 338 W/m² | - |
| 1777506624 | 15° C | 25% | 936.5 hPa | 0 mm | - | 374 W/m² | - |
| 1777506320 | 15° C | 25% | 936.5 hPa | 0 mm | - | 401 W/m² | - |
| 1777506016 | 15° C | 26% | 936.6 hPa | 0 mm | - | 420 W/m² | - |
| 1777505711 | 15° C | 24% | 936.5 hPa | 0 mm | - | 315 W/m² | - |
| 1777505409 | 15° C | 24% | 936.3 hPa | 0 mm | - | 366 W/m² | - |
| 1777505105 | 15° C | 24% | 936.4 hPa | 0 mm | - | 453 W/m² | - |
| 1777504802 | 14.44° C | 27% | 936.5 hPa | 0 mm | - | 510 W/m² | - |
| 1777504499 | 14.44° C | 26% | 936.4 hPa | 0 mm | - | 415 W/m² | - |
* Rain latest hour (hover to see other rain measurements)
** Current wind speed in m/s (hover to see current wind gust speed)